Flag for Norway Weather past 2 weeks in Bodø, Norway

Now
50 °F

Scattered showers. Broken clouds.


Feels Like: 45 °F
Forecast: 49 / 55 °F
Wind: 13 mph from North

Location: Bodo Vi

Current Time: Jul 8, 2015 at 9:04:21 AM

Latest Report: Jul 8, 2015 at 8:20 AM


Visibility: N/A

Pressure: 29.47 "Hg

Humidity: 88%

Dew point: 46 °F

Location of BodøLocation

Historic Weather in Bodø — Graph

°F

Bodø temperature yesterday

Maximum temperature yesterday: 59 °F (at 4:20 PM)
Minimum temperature yesterday: 50 °F (at 12:50 AM)
Average temperature yesterday: 54 °F

Past Weeks' High & Low Weather Summary

 TemperatureHumidityPressure
High64 °F (Jul 6, 10:50 AM)100% (Jun 23, 10:20 PM)30.24 "Hg (Jun 23, 10:20 PM)
Low45 °F (Jun 28, 3:50 AM)49% (Jul 6, 11:20 AM)29.47 "Hg (Jul 7, 9:20 AM)
Average52 °F83%29.93 "Hg
* Reported Jun 23 7:20 AM — Jul 8 7:50 AM, Bodø, Weather by CustomWeather, © 2015

Note: Actual official high and low records may vary slightly from our data, if they occured in-between our weather recording intervals... More about our weather records

Advertising

Bodø weather history for previous 24 hours

 ConditionsComfort  
Time TempWeatherWind HumidityBarometerVisibility
7:50 AM
Wed, Jul 8
48 °FSprinkles. Broken clouds.16 mph94%29.47 "HgN/A
7:20 AM48 °FSprinkles. Broken clouds.17 mph94%29.47 "HgN/A
6:50 AM48 °FSprinkles. Broken clouds.15 mph94%29.47 "HgN/A
6:20 AM48 °FSprinkles. Broken clouds.15 mph94%29.47 "HgN/A
5:20 AM50 °FSprinkles. Broken clouds.9 mph94%29.47 "HgN/A
4:50 AM50 °FSprinkles. Broken clouds.5 mph94%29.47 "HgN/A
3:50 AM52 °FPartly sunny.5 mph88%29.47 "HgN/A
2:50 AM52 °FPartly sunny.5 mph88%29.47 "HgN/A
1:50 AM50 °FBroken clouds.7 mph94%29.47 "HgN/A
12:50 AM52 °FBroken clouds.8 mph88%29.47 "HgN/A
11:50 PM
Tue, Jul 7
52 °FPartly sunny.8 mph88%29.47 "HgN/A
11:20 PM52 °FBroken clouds.8 mph88%29.47 "HgN/A
10:50 PM52 °FScattered showers. Broken clouds.9 mph88%29.47 "HgN/A
10:20 PM52 °FScattered showers. Partly sunny.9 mph88%29.47 "HgN/A
9:50 PM52 °FScattered showers. Partly sunny.12 mph88%29.47 "HgN/A
9:20 PM52 °FScattered showers. Partly sunny.10 mph88%29.47 "HgN/A
8:50 PM54 °FScattered showers. Partly sunny.9 mph82%29.47 "HgN/A
8:20 PM54 °FPartly sunny.7 mph82%29.47 "HgN/A
7:50 PM55 °FPartly sunny.5 mph77%29.47 "HgN/A
7:20 PM55 °FPartly sunny.2 mph77%29.47 "HgN/A
6:50 PM55 °FPartly sunny.2 mph77%29.50 "HgN/A
6:20 PM57 °FBroken clouds.6 mph72%29.50 "HgN/A
5:20 PM59 °FScattered clouds.5 mph63%29.50 "HgN/A
4:50 PM59 °FScattered clouds.5 mph63%29.50 "HgN/A
4:20 PM59 °FScattered clouds.5 mph68%29.50 "HgN/A
3:50 PM57 °FPassing clouds.3 mph67%29.50 "HgN/A
3:20 PM57 °FPassing clouds.5 mph72%29.50 "HgN/A
2:50 PM55 °FScattered clouds.2 mph77%29.50 "HgN/A
2:20 PM55 °FScattered clouds.5 mph77%29.50 "HgN/A
1:50 PM55 °FPartly sunny.9 mph77%29.50 "HgN/A
1:20 PM57 °FScattered clouds.10 mph72%29.50 "HgN/A
12:50 PM57 °FScattered clouds.14 mph72%29.47 "HgN/A
12:20 PM57 °FScattered clouds.12 mph72%29.47 "HgN/A
11:50 AM57 °FScattered clouds.13 mph72%29.47 "HgN/A
11:20 AM57 °FScattered clouds.14 mph72%29.47 "HgN/A
10:50 AM57 °FScattered clouds.13 mph72%29.47 "HgN/A
10:20 AM55 °FPartly sunny.14 mph77%29.47 "HgN/A
9:50 AM55 °FPartly sunny.9 mph77%29.47 "HgN/A
9:20 AM54 °FPartly sunny.10 mph82%29.47 "HgN/A
Weather by CustomWeather, © 2015

See weather overviewHow to use our weather pages